Location: Amsterdam
(30.7274°N, 84.4357°W)
Time: 07:24:26
(UTC+00:00)

Tiros 1 - Pass Details

Date: 19 February 2026
Orbit: 618 x 649 km, 48.4° (Epoch: 9 March)

Event Time Altitude Azimuth Distance (km) Brightness Sun altitude
Rises 11:47:27 0° 206° (SSW) 2,921 10.3 -6.6°
Reaches altitude 10° 11:49:56 10° 197° (SSW) 2,010 9.6 -6.0°
Maximum altitude 11:54:07 34° 132° (SE) 1,035 8.9 -5.1°
Drops below altitude 10° 11:58:17 10° 68° (ENE) 2,000 10.7 -4.3°
Sets 12:00:44 0° 59° (ENE) 2,904 11.3 -3.7°
